Weather Roundup
Issued by NWS

Home | Current Version | Previous Version | Graphics & Text | Print | Product List | Glossary Off
Versions: 1 2 3 4 5 6 7 8 9 10 11 12 13 14 15 16 17 18 19 20 21 22 23 24 25 26 27 28 29 30 31 32 33 34 35 36 37 38 39 40 41 42 43 44 45 46 47 48 49 50

705
NZUS93 KARX 090659
HRRWXR

CURRENT HOURLY OBSERVATIONS ACROSS
MUCH OF THE UPPER MISSISSIPPI VALLEY
NATIONAL WEATHER SERVICE LA CROSSE WI
100 AM CST TUE FEB 09 2016


...SOUTHEAST MINNESOTA...


CITY           SKY/WX    TMP DP  RH WIND       PRES   REMARKS
ROCHESTER      MIX PCPN  11   5  77 N23G30    29.90S WCI  -9
ROCHESTER/MAYO CLOUDY    11   6  77 NW14G25   29.92R WCI  -4
WINONA         CLOUDY    14   7  73 N6        29.95R WCI   5
AUSTIN         CLOUDY    10   7  85 NW21G32   29.92R WCI  -9
ALBERT LEA     FLURRIES  10   7  85 NW13G24   29.94S WCI  -5
DODGE CENTER   FLURRIES  10   5  79 N17       29.91R WCI  -7
PRESTON        CLOUDY    10   4  77 N18G24    29.89S WCI  -8
OWATONNA       CLOUDY    10   3  72 NW22G29   29.96R WCI  -9
FARIBAULT      CLOUDY    10   3  72 NW15      29.98R WCI  -6
$$

...ELSEWHERE IN MINNESOTA...


CITY           SKY/WX    TMP DP  RH WIND       PRES   REMARKS
MINNEAPOLIS    FLURRIES  12   4  70 NW10G20   30.00R WCI  -1
INTNL FALLS    CLOUDY     1  -4  79 N14G24    30.06F WCI -17
DULUTH         CLOUDY     2  -5  72 N16       29.93S WCI -18
RED WING       CLOUDY    12   1  62 N9G22     29.97S WCI   0
REDWOOD FALLS  CLOUDY     9   2  73 NW21G30   30.08S WCI -11
MANKATO        CLOUDY    12   5  73 NW21      30.00S WCI  -6
WORTHINGTON    CLOUDY     9   1  72 N26       30.05S WCI -13
FAIRMONT       CLOUDY    10   1  67 NW23G30   30.00R WCI -10
$$

...SOUTHWEST WISCONSIN...


CITY           SKY/WX    TMP DP  RH WIND       PRES   REMARKS
LA CROSSE      CLOUDY    12   3  67 N14       29.91S WCI  -3
PRAIRIE DU CHI MIX PCPN  14   8  76 NW7       29.89S WCI   4
BOSCOBEL       LGT SNOW  15   9  76 N6G16     29.87S WCI   6
LONE ROCK      FLURRIES  14   6  70 NW12      29.84S WCI   0
PLATTEVILLE    MOCLDY    14  11  88 NW14      29.82R WCI  -1
FORT MC COY    FLURRIES  11   6  77 NW8       29.89R WCI   0
CAMP DOUGLAS   DRIZZLE   10   9  92 NW14      29.83S WCI  -5
VIROQUA        CLOUDY    11   6  79 N16G22    29.82S WCI  -6
WIS DELLS      LGT SNOW  13   8  81 NW12      29.80S WCI  -1
$$

...ELSEWHERE IN WISCONSIN...


CITY           SKY/WX    TMP DP  RH WIND       PRES   REMARKS
MILWAUKEE      FLURRIES  19  13  77 NW14      29.72F WCI   6
MADISON        LGT SNOW  14   9  80 NW12      29.78S WCI   0
GREEN BAY      LGT SNOW  17  10  74 NW12      29.75S WCI   4
EAU CLAIRE     NOT AVBL
BLACK RVR FLS  LGT SNOW  11   3  70 NW6       29.89R WCI   2
MEDFORD        FLURRIES   7   3  82 NW12      29.79S WCI  -8
WAUSAU         CLOUDY    11   4  73 NW10      29.76S WCI  -3
WIS RAPIDS     PTCLDY    10   2  69 NW13      29.82S WCI  -5
MARSHFIELD     CLOUDY     9   2  73 NW17      29.79S HAZE    WCI  -9
RICE LAKE      MOCLDY     7   0  73 NW9G17    29.94S WCI  -7
$$

...NORTHEAST IOWA...


CITY           SKY/WX    TMP DP  RH WIND       PRES   REMARKS
WATERLOO       LGT SNOW  13   7  77 NW22G31   29.91S WCI  -6
DUBUQUE        CLOUDY    13   8  81 N14       29.82S WCI  -2
DECORAH        FLURRIES  12   7  79 N14       29.87R WCI  -3
MASON CITY     LGT SNOW  11   7  84 NW25G31   29.95S FOG     WCI -10
CHARLES CITY   CLOUDY    12   9  85 NW17      29.92R WCI  -5
OELWEIN        LGT SNOW  14  10  85 NW15      29.89S WCI  -1
$$

...ELSEWHERE IN IOWA...


CITY           SKY/WX    TMP DP  RH WIND       PRES   REMARKS
DES MOINES     FLURRIES  15   7  70 NW17G24   30.00F WCI  -1
IOWA CITY      LGT SNOW  16  11  80 NW14      29.92S WCI   2
FORT DODGE     CLOUDY    10   1  67 N17G24    30.02R WCI  -7
MARSHALLTOWN   LGT SNOW  12   7  80 NW22      29.95S WCI  -7
CEDAR RAPIDS   LGT SNOW  15  12  88 NW17      29.89S FOG     WCI  -1
$$

...NORTHERN ILLINOIS...


CITY           SKY/WX    TMP DP  RH WIND       PRES   REMARKS
CHICAGO-OHARE  FLURRIES  20  15  81 NW14      29.72F WCI   7
CHICAGO-MIDWAY LGT SNOW  22  16  78 NW10      29.73F VSB 1   WCI  11
MOLINE         LGT SNOW  17  11  77 NW15      29.86R WCI   2
ROCKFORD       FLURRIES  18  11  74 NW14      29.79F WCI   4
PEORIA         CLOUDY    18   9  68 NW9G18    29.84S WCI   7
$$

NOTE: "FAIR" INDICATES FEW OR NO CLOUDS BELOW 12,000 FEET WITH NO
SIGNIFICANT WEATHER AND/OR OBSTRUCTIONS TO VISIBILITY. WIND
SPEEDS ARE IN MILES-PER-HOUR.




USA.gov is the U.S. government's official web portal to all federal, state and local government web resources and services.